Terug naar catalogus

PRAETORIAN SDA_511

ActiefPO
NORAD 100069·PAYLOAD·🇺🇸 United States

Gelanceerd Jul 16, 2026 vanaf Vandenberg Space Force Base

Loading…

Volgende Passages (komende 24 uur)

TLE

VersSource: Space-Track

Epoch: Sep 14, 2026, 11:16 UTC

1 A0069U 26163L   26257.46991247  .00000070  00000-0  50288-4 0  9991
2 A0069  81.4772 255.4509 0015125  53.9149 306.3407 13.85677547  8263

Volg PRAETORIAN SDA_511 in realtime met AllMySat

Download on the App Store